FW0304 Weather Reports


time (UTC)temp
C
wind
direction
speed
KPH
gust
KPH
rain 1hr
cm
rain 24hr
cm
rain mn
cm
humidity
%
barometer
mb
20260906081513 23 55 0.0 0.0 0.00 0.00 0.00 91 1012.3
20260906080015 23 55 0.0 0.0 0.00 0.00 0.00 91 1012.4
20260906074527 23 55 0.0 0.0 0.00 0.00 0.00 91 1012.3
20260906073026 23 55 0.0 0.0 0.00 0.00 0.00 90 1012.3
20260906071508 23 55 0.0 0.0 0.00 0.00 0.00 90 1012.5
20260906070014 24 55 0.0 0.0 0.00 0.00 0.00 89 1012.5
20260906064521 24 55 0.0 0.0 0.00 0.00 0.00 89 1012.5
20260906063041 24 55 0.0 0.0 0.00 0.00 0.00 88 1012.4
20260906061509 24 55 0.0 0.0 0.00 0.00 0.00 88 1012.7
20260906060014 24 55 0.0 0.0 0.00 0.00 0.00 88 1012.6
20260906054518 25 55 0.0 0.0 0.00 0.00 0.00 87 1012.7
20260906053027 25 55 0.0 0.0 0.00 0.00 0.00 87 1012.8
20260906051549 25 55 0.0 0.0 0.00 0.00 0.00 86 1012.7
20260906050013 25 55 0.0 0.0 0.00 0.00 0.00 86 1012.7
20260906044516 25 55 0.0 3.2 0.00 0.00 0.00 85 1012.9
20260906043026 25 55 0.0 0.0 0.00 0.00 0.00 84 1013.0
20260906041532 26 55 0.0 0.0 0.00 0.00 0.00 83 1012.8
20260906040037 26 55 0.0 0.0 0.00 0.00 0.00 82 1012.8
20260906034515 26 55 0.0 0.0 0.00 0.00 0.00 81 1012.8
20260906033023 26 55 0.0 0.0 0.00 0.00 0.00 80 1012.9
20260906031537 26 55 0.0 0.0 0.00 0.00 0.00 79 1012.9
20260906030006 27 55 0.0 0.0 0.00 0.00 0.00 78 1012.9
20260906024511 27 55 0.0 0.0 0.00 0.00 0.00 77 1012.7
20260906023017 27 55 0.0 0.0 0.00 0.00 0.00 75 1012.8
20260906021527 28 55 0.0 0.0 0.00 0.00 0.00 74 1012.5
20260906020009 28 55 0.0 0.0 0.00 0.00 0.00 72 1012.2
20260906014520 28 55 0.0 3.2 0.00 0.00 0.00 70 1011.9
20260906013015 28 117 0.0 0.0 0.00 0.00 0.00 68 1011.8
20260906011525 29 117 0.0 0.0 0.00 0.00 0.00 66 1011.8
20260906010031 29 113 0.0 0.0 0.00 0.00 0.00 64 1011.7
20260906004511 30 115 0.0 0.0 0.00 0.00 0.00 62 1011.4
20260906003013 30 150 0.0 3.2 0.00 0.00 0.00 60 1011.3
20260906001522 31 68 0.0 4.8 0.00 0.00 0.00 59 1011.3
20260906000026 31 124 0.0 4.8 0.00 0.00 0.00 60 1011.3
20260905234528 32 182 0.0 3.2 0.00 0.00 0.00 60 1011.4
20260905233011 32 167 0.0 4.8 0.00 0.00 0.00 59 1011.1
20260905231523 32 195 0.0 6.4 0.00 0.00 0.00 59 1011.0
20260905230030 33 133 0.0 4.8 0.00 0.00 0.00 59 1010.9
20260905224528 33 133 1.6 4.8 0.00 0.00 0.00 58 1011.0
20260905223012 33 180 0.0 6.4 0.00 0.00 0.00 58 1010.9
20260905221516 33 165 0.0 4.8 0.00 0.00 0.00 57 1010.8
20260905220026 35 209 0.0 9.7 0.00 0.00 0.00 55 1010.9
20260905214532 35 184 1.6 11.3 0.00 0.00 0.00 52 1010.8
20260905213030 35 140 0.0 0.0 0.00 0.00 0.00 53 1011.0
20260905211518 34 140 0.0 3.2 0.00 0.00 0.00 55 1011.1
20260905210034 35 140 0.0 3.2 0.00 0.00 0.00 50 1011.2
20260905204534 36 167 0.0 3.2 0.00 0.00 0.00 48 1011.3
20260905203032 36 349 0.0 3.2 0.00 0.00 0.00 49 1011.4
20260905201532 35 307 0.0 3.2 0.00 0.00 0.00 48 1011.7
20260905200023 35 303 0.0 3.2 0.00 0.00 0.00 50 1012.0
20260905194527 35 329 0.0 3.2 0.00 0.00 0.00 50 1012.1
20260905193034 36 248 0.0 3.2 0.00 0.00 0.00 48 1012.2
20260905191540 35 300 1.6 3.2 0.00 0.00 0.00 48 1012.4
20260905190020 35 290 0.0 3.2 0.00 0.00 0.00 52 1012.7
20260905184525 36 343 0.0 9.7 0.00 0.00 0.00 48 1012.8
20260905183006 35 100 1.6 4.8 0.00 0.00 0.00 49 1013.2
20260905181512 35 349 1.6 4.8 0.00 0.00 0.00 49 1013.4
20260905180015 35 171 1.6 4.8 0.00 0.00 0.00 50 1013.6
20260905174523 35 352 1.6 6.4 0.00 0.00 0.00 52 1013.9
20260905173003 34 280 0.0 4.8 0.00 0.00 0.00 54 1014.0
20260905171513 35 294 1.6 3.2 0.00 0.00 0.00 53 1014.1
20260905170014 34 286 0.0 3.2 0.00 0.00 0.00 54 1014.2
20260905164520 34 319 0.0 3.2 0.00 0.00 0.00 56 1014.4
20260905163032 33 298 0.0 3.2 0.00 0.00 0.00 62 1014.7
20260905161509 33 5 1.6 3.2 0.00 0.00 0.00 62 1014.9
20260905160011 32 226 1.6 3.2 0.00 0.00 0.00 65 1015.0
20260905154513 32 306 0.0 3.2 0.00 0.00 0.00 68 1015.1
20260905153024 32 306 0.0 3.2 0.00 0.00 0.00 68 1015.2
20260905151529 31 294 0.0 0.0 0.00 0.00 0.00 72 1015.3
20260905150008 31 301 0.0 3.2 0.00 0.00 0.00 73 1015.2
20260905144513 31 302 0.0 3.2 0.00 0.00 0.00 72 1015.2
20260905143019 29 79 0.0 3.2 0.00 0.00 0.00 79 1015.2
20260905141527 29 269 0.0 3.2 0.00 0.00 0.00 77 1015.2
20260905140005 28 313 0.0 3.2 0.00 0.00 0.00 80 1015.2
20260905134513 28 311 0.0 3.2 0.00 0.00 0.00 81 1015.3
20260905133018 27 322 1.6 3.2 0.00 0.00 0.00 85 1015.3
20260905131534 26 329 0.0 1.6 0.00 0.00 0.00 87 1015.4
20260905130031 25 329 0.0 3.2 0.00 0.00 0.00 89 1015.5
20260905124510 24 329 0.0 0.0 0.00 0.00 0.00 91 1015.4
20260905123017 23 329 0.0 0.0 0.00 0.00 0.00 92 1015.3
20260905121526 23 329 0.0 0.0 0.00 0.00 0.00 1015.1
20260905120034 22 329 0.0 0.0 0.00 0.00 0.00 1014.7
20260905114532 22 329 0.0 0.0 0.00 0.00 0.00 93 1014.7
20260905113010 22 329 0.0 0.0 0.00 0.00 0.00 93 1014.7
20260905111521 23 329 0.0 0.0 0.00 0.00 0.00 93 1014.5
20260905110023 23 329 0.0 0.0 0.00 0.00 0.00 93 1014.4
20260905104530 23 329 0.0 0.0 0.00 0.00 0.00 92 1014.2
20260905103013 23 329 0.0 0.0 0.00 0.00 0.00 93 1014.1
20260905101515 23 329 0.0 0.0 0.00 0.00 0.00 92 1014.3
20260905100026 23 329 0.0 0.0 0.00 0.00 0.00 92 1014.5
20260905094559 23 329 0.0 0.0 0.00 0.00 0.00 92 1014.3
20260905093007 23 329 0.0 0.0 0.00 0.00 0.00 92 1014.2
20260905091515 23 329 0.0 0.0 0.00 0.00 0.00 91 1014.2
20260905090020 23 329 0.0 0.0 0.00 0.00 0.00 92 1014.4
20260905084526 23 329 0.0 0.0 0.00 0.00 0.00 92 1014.2
20260905083009 23 329 0.0 0.0 0.00 0.00 0.00 91 1014.2